This demonstration page uses our WeatherBlox Daily Observations layout. Learn more.

Left ArrowRight Arrow

39.12711, -84.51439

Hourly Observations for September 30, 2021

Temp ( °F °C ) Dew Point ( °F °C ) Humidity (%) Winds ( mph kmh ) Pressure ( in mb ) Visibility ( mi km ) Precip ( " mm )
12:53 am 00:53 Clear 57 13.9 57 13.9 100 100 Calm 30.11 1020 10 16 0.00 0.00
1:53 am 01:53 Clear 55 12.8 54 12.2 96 96 Calm 30.13 1020 10 16 0.00 0.00
2:53 am 02:53 Clear 54 12.2 54 12.2 100 100 Calm 30.13 1020 9 14 0.00 0.00
3:02 am 03:02 Clear with Mist and Fog 53 11.7 53 11.7 100 100 Calm 30.14 1021 2 3 0.00 0.00
3:13 am 03:13 Clear with Mist and Fog 54 12.2 54 12.2 100 100 Calm 30.14 1021 3 5 0.00 0.00
3:38 am 03:38 Clear with Mist and Fog 53 11.7 53 11.7 100 100 Calm 30.14 1021 2 3 0.00 0.00
3:53 am 03:53 Clear with Mist and Fog 53 11.7 53 11.7 100 100 Calm 30.14 1021 1 2 0.00 0.00
4:02 am 04:02 Clear with Mist and Fog 54 12.2 54 12.2 100 100 Calm 30.14 1021 4 6 0.00 0.00
4:39 am 04:39 Clear with Mist and Fog 52 11.1 52 11.1 100 100 Calm 30.16 1021 3 4 0.00 0.00
4:53 am 04:53 Clear 54 12.2 54 12.2 100 100 NE 5 7 30.14 1021 9 14 0.00 0.00
5:53 am 05:53 Clear 53 11.7 53 11.7 100 100 N 5 7 30.14 1021 10 16 0.00 0.00
6:53 am 06:53 Clear 52 11.1 52 11.1 100 100 Calm 30.16 1021 9 14 0.00 0.00
7:53 am 07:53 Sunny with Fog 52 11.1 52 11.1 100 100 NE 3 6 30.17 1022 10 16 0.00 0.00
8:53 am 08:53 Sunny 57 13.9 54 12.2 90 90 NE 5 7 30.19 1022 10 16 0.00 0.00
9:53 am 09:53 Sunny 61 16.1 55 12.8 81 81 NNE 6 9 30.19 1022 10 16 0.00 0.00
10:53 am 10:53 Sunny 66 18.9 57 13.9 73 73 NE 3 6 30.19 1023 10 16 0.00 0.00
11:53 am 11:53 Sunny 72 22.2 58 14.4 61 61 Calm 30.20 1023 10 16 0.00 0.00
12:53 pm 12:53 Sunny 73 22.8 57 13.9 57 57 Calm 30.18 1022 10 16 0.00 0.00
1:53 pm 13:53 Sunny 75 23.9 57 13.9 54 54 SW 6 9 30.17 1022 10 16 0.00 0.00
2:53 pm 14:53 Sunny 78 25.6 54 12.2 43 43 Calm 30.16 1021 10 16 0.00 0.00
3:53 pm 15:53 Sunny 76 24.4 56 13.3 50 50 SSW 5 7 30.15 1021 10 16 0.00 0.00
4:53 pm 16:53 Sunny 77 25 54 12.2 45 45 Calm 30.15 1021 10 16 0.00 0.00
5:53 pm 17:53 Sunny 78 25.6 56 13.3 47 47 Calm 30.16 1021 10 16 0.00 0.00
6:53 pm 18:53 Sunny 74 23.3 62 16.7 67 67 Calm 30.17 1022 10 16 0.00 0.00
7:53 pm 19:53 Clear 65 18.3 60 15.6 84 84 Calm 30.18 1022 10 16 0.00 0.00
8:53 pm 20:53 Clear 61 16.1 58 14.4 90 90 Calm 30.19 1023 10 16 0.00 0.00
9:53 pm 21:53 Clear 58 14.4 58 14.4 100 100 Calm 30.20 1023 10 16 0.00 0.00
10:53 pm 22:53 Clear 58 14.4 58 14.4 100 100 NE 5 7 30.21 1023 10 16 0.00 0.00
11:53 pm 23:53 Clear 57 13.9 57 13.9 100 100 Calm 30.21 1023 10 16 0.00 0.00

Powered by AerisWeather